Regional Weather Roundup
Issued by NWS Boston, MA

Home | Current Version | Previous Version | Text Only | Print | Product List | Glossary On
Versions: 1 2 3 4 5 6 7 8 9 10 11 12 13 14 15 16 17 18 19 20 21 22 23 24 25 26 27
000
ASUS41 KBOX 290510
RWRBOX

REGIONAL WEATHER ROUNDUP
NATIONAL WEATHER SERVICE TAUNTON MA
100 AM EDT FRI APR 29 2016

NOTE:  "FAIR" INDICATES FEW OR NO CLOUDS BELOW 12,000 FEET WITH NO
SIGNIFICANT WEATHER AND/OR OBSTRUCTIONS TO VISIBILITY.  THE FOLLOWING
OBSERVATION LOCATIONS DO NOT REPORT PRESENT WEATHER...PROVINCETOWN...
SMITHFIELD...BLOCK ISLAND...KEENE...AND OXFORD.

MAZALL-290600-
EASTERN MASSACHUSETTS

CITY           SKY/WX    TMP DP  RH WIND       PRES   REMARKS
BOSTON         CLOUDY    46  34  62 SE7       30.11S
BEVERLY        CLOUDY    44  33  65 SE7       30.11R
LAWRENCE       CLOUDY    40  32  73 N6        30.13R
BEDFORD        MOCLDY    45  32  60 SE5       30.09S
BLUE HILL        N/A     43  33  68 S7        30.08S
NORWOOD        CLOUDY    46  34  62 SE3       30.10S
MARSHFIELD     CLOUDY    45  36  70 SE3       30.12S
PLYMOUTH       CLOUDY    44  35  70 SE3       30.11S
TAUNTON        CLOUDY    46  35  65 CALM      30.10S
NEW BEDFORD    CLOUDY    46  36  68 S7        30.10S
$$

MAZALL-290600-
CAPE COD AND THE ISLANDS

CITY           SKY/WX    TMP DP  RH WIND       PRES   REMARKS
FALMOUTH       CLOUDY    45  34  65 SE3       30.11S
HYANNIS        CLOUDY    45  33  63 SE5       30.10S
CHATHAM        CLOUDY    44  34  67 SE3       30.13S
PROVINCETOWN   CLOUDY    44  36  73 SE3       30.13S
NANTUCKET      CLOUDY    45  35  68 E5        30.11S
MARTHAS VNYRD  LGT RAIN  44  37  76 E5        30.10F
$$

MAZALL-290600-
CENTRAL AND WESTERN MASSACHUSETTS

CITY           SKY/WX    TMP DP  RH WIND       PRES   REMARKS
WORCESTER      CLOUDY    43  30  60 SE3       30.07S
FITCHBURG      CLOUDY    46  33  60 NE5       30.10R
ORANGE         CLOUDY    45  35  68 CALM      30.07S
SPRINGFIELD    CLOUDY    47  34  60 SE2       30.06R
WESTFIELD      CLOUDY    47  36  65 S5        30.07R
NORTH ADAMS    PTCLDY    42  26  53 W3        30.06S
PITTSFIELD     PTCLDY    46  23  40 NE9       30.03R
$$

RIZALL-290600-
RHODE ISLAND

CITY           SKY/WX    TMP DP  RH WIND       PRES   REMARKS
PROVIDENCE     LGT RAIN  45  34  65 SE5       30.10S
NEWPORT        CLOUDY    43  37  79 SE5       30.09S
BLOCK ISLAND   LGT RAIN  45  38  76 E7        30.09S
SMITHFIELD       N/A     45  32  61 SE3       30.08S
WESTERLY       CLOUDY    47  34  60 VRB3      30.09S
$$

CTZALL-290600-
CONNECTICUT

CITY           SKY/WX    TMP DP  RH WIND       PRES   REMARKS
BRADLEY INTL   CLOUDY    47  36  65 S9        30.06S
HARTFORD       CLOUDY    48  38  68 S7        30.08S
BRIDGEPORT     LGT RAIN  49  39  68 SE5       30.08R
DANBURY        CLOUDY    45  40  82 SE3       30.07R
GROTON         CLOUDY    47  40  76 SE7       30.08S
NEW HAVEN      CLOUDY    48  38  68 SE5       30.08R
CHESTER        FAIR      45  41  87 CALM      30.07R
MERIDEN        CLOUDY    47  40  76 NW3       30.09R
WILLIMANTIC    LGT RAIN  47  37  68 SE6       30.08S
OXFORD           N/A     45  37  76 CALM      30.08R
$$

MEZ002-015-021-024-NHZ003-005-008-011-012-014-VTZ005-008-290600-
NORTHERN NEW ENGLAND

CITY           SKY/WX    TMP DP  RH WIND       PRES   REMARKS
PORTLAND ME    CLEAR     38  23  55 N10       30.17R WCI  31
BANGOR ME      PTCLDY    34  13  41 NE5       30.20R WCI  30
CONCORD NH     CLEAR     39  29  67 NE6       30.12R
MANCHESTER NH  MOCLDY    42  32  67 N8        30.10R
NASHUA NH      MOCLDY    43  30  60 CALM      30.11R
PORTSMOUTH NH  CLEAR     42  37  83 NE6       30.12R
JAFFREY NH     MOCLDY    41  28  60 CALM      30.08S
KEENE NH       CLOUDY    45  25  45 N8        30.09F
BURLINGTON VT  FAIR      34  18  52 NE3       30.15S
MT. WASHINGTON PTCLDY    19  -4  35 W16         N/A  WCI   5
$$

NYZ052-076-290600-
EASTERN NEW YORK

CITY           SKY/WX    TMP DP  RH WIND       PRES   REMARKS
ALBANY         MOCLDY    40  18  41 N14       30.09R
NEW YORK CITY  CLOUDY    49  38  65 CALM      30.06R
$$

ANZALL-290600-
MARINE OBSERVATIONS

STATION/POSITION TIME  TEMP    WIND        PRES    VSBY  WAVE
                       AIR SEA DIR/SP/G                  HT/PER
                 (UTC) (F)     (DEG/KT/KT) (MB)    (MI)  (FT/S)
BOSTON BUOY      0450   46 46  140/  8/ 10 1019.0R         2/ 9
BUZZARDS BAY     0500   45     100/ 10/ 10 1019.5F
NANTUCKET SOUND  0450   45 49  120/  8/ 10 1019.6S         1
MASS BAY-STELLWA 0404   45 45                N/A    1 7/8  3/ 8
ISLE OF SHOALS   0500   44     140/ 13/ 14 1019.4R
S OF BLOCK IS    NOT AVBL
$$

......................KEY.........................
  SKY/WX - SKY CONDITION/PRESENT WEATHER
  TMP    - TEMPERATURE IN FAHRENHEIT
  DWPT   - DEWPOINT IN FAHRENHEIT
  RH     - RELATIVE HUMIDITY IN PERCENT
  WIND   - DIRECTION AND SPEED IN MPH
  PRES   - MEAN SEA LEVEL PRESSURE IN INCHES OF HG
  WCI    - WIND CHILL INDEX
  VSB    - VISIBILITY IN MILES
  HX     - HEAT INDEX
  TC     - TEMPERATURE IN CELSIUS
  VRB    - VARIABLE WIND DIRECTION
  N/A    - NOT AVAILABLE




USA.gov is the U.S. government's official web portal to all federal, state and local government web resources and services.